Location: Piscinola
(40.9000°N, 14.2333°E)
Time: 09:39:26
(UTC+00:00)

Daily predictions for brighter satellites

Satellite Brightness Start Highest point End
(mag) Time Altitude Azimuth Time Altitude Azimuth Time Altitude Azimuth
Cosmos 2369 3.7 15:56:17 10° NNW 16:02:02 73° ENE 16:07:44 10° SSE
CZ-2C R/B 2.9 15:59:20 10° SSE 16:04:11 85° ENE 16:08:58 10° NNW
Cosmos 2082 Rocket 2.3 16:01:09 10° SSW 16:06:50 90° ESE 16:12:32 10° NNE
SL-16 R/B 3.5 16:03:08 10° N 16:07:09 19° NE 16:11:09 10° E
Cosmos 540 Rocket 4.0 16:02:48 10° SSW 16:07:49 60° WNW 16:12:54 10° NNE
ARGOS 4.4 16:05:03 10° ESE 16:08:38 18° ENE 16:12:13 10° NNE
Sich 1 3.0 16:06:50 10° N 16:11:09 68° E 16:15:27 10° SSE
FengYun 1-2 T 4.2 16:06:21 10° SSE 16:11:53 71° ENE 16:17:24 10° N
COSMOS 2455 3.3 16:07:40 10° SW 16:13:37 63° WNW 16:19:38 10° NNE
SMAP 3.1 16:10:08 10° SSE 16:14:41 58° ENE 16:19:15 10° N
NOAA 6 4.1 16:11:06 10° SSE 16:16:08 60° ENE 16:21:11 10° N
Cosmos 1933 4.4 16:16:03 10° SSW 16:19:56 47° W 16:23:51 10° N
Cosmos 1833 Rocket 4.2 16:15:25 10° WSW 16:20:27 33° WNW 16:25:32 10° N
Cosmos 1805 Rocket 4.0 16:19:21 10° NNW 16:23:38 66° W 16:27:56 10° S
Cosmos 2278 3.7 16:18:51 10° NNW 16:24:31 62° ENE 16:30:07 10° SE
CZ-4B DEB 4.3 16:19:54 10° SSE 16:25:16 56° ENE 16:30:38 10° N
USA 305 4.4 16:27:35 10° NNW 16:30:44 20° NNE 16:32:51 14° NE
CZ-4B R/B 3.8 16:26:57 10° S 16:30:50 50° W 16:34:32 10° NNW
CZ-2C R/B 3.2 16:27:29 10° NNE 16:32:10 34° E 16:36:50 10° SSE
SL-24 R/B - RUBIN 2 4.0 16:29:21 10° NW 16:33:44 64° WSW 16:37:59 10° SSE
Cosmos 1500 3.6 16:33:04 10° NNW 16:36:47 63° W 16:40:26 10° S
Meteor 1-14 Rocket 4.3 16:31:24 10° N 16:37:17 73° E 16:43:14 10° SSE
Cosmos 44 Rocket 3.5 16:33:49 10° NNW 16:38:34 48° NE 16:43:09 10° SE
Cosmos 1515 Rocket 4.3 16:35:25 10° SSE 16:39:20 32° E 16:43:15 10° NNE
Cosmos 1814 Rocket 4.3 16:35:28 10° SSW 16:40:40 67° WNW 16:45:50 10° NNE
Meteor 2-16 Rocket 4.4 16:35:23 10° N 16:41:31 72° E 16:47:38 10° SSE
Cosmos 921 Rocket 3.0 16:37:43 10° S 16:41:49 56° ESE 16:45:57 10° NNE
Cosmos 1570 Rocket 4.3 16:42:19 10° SSW 16:47:31 68° WNW 16:52:45 10° NNE
CZ-4B R/B 3.3 16:46:11 10° SE 16:51:22 50° ENE 16:56:30 10° N
MOS 1-B Rocket 4.2 16:47:19 10° NNE 16:53:31 77° ESE 17:00:44 10° S
CZ-2D R/B 3.1 16:49:58 10° SSE 16:53:47 82° ENE 16:57:37 10° N
MOS 1-B 4.3 16:50:26 10° SSE 16:56:11 75° ENE 17:01:58 10° N
USA 267 3.7 16:50:26 13° NE 16:56:16 57° NW 17:02:37 10° WSW
Cosmos 1939 Rocket 4.4 16:52:38 10° SSW 16:56:30 40° W 17:00:21 10° NNW
Cosmos 2298 Rocket 4.1 16:52:08 10° N 16:57:22 54° ENE 17:02:35 10° SE
ATLAS CENTAUR R/B 4.2 16:50:17 10° W 16:57:51 28° NW 17:01:31 11° NNE
Cosmos 1151 Rocket 3.8 16:55:33 10° SSW 16:59:46 53° W 17:04:04 10° N
Meteor 1-27 Rocket 4.1 16:54:45 10° SSE 16:59:49 39° E 17:04:01 15° NNE
CZ-4C R/B 4.3 17:03:22 22° SE 17:03:22 22° SE 17:05:18 10° SSE
APEX 2.9 16:58:46 10° SSW 17:02:41 88° W 17:04:24 27° NNE
Meteor 2-6 Rocket 4.3 16:56:58 10° S 17:02:42 84° W 17:08:19 10° N
USA 306 4.0 16:59:42 10° NNW 17:03:19 26° NNE 17:03:51 25° NE
COSMO-SKYMED 1 2.5 16:59:10 11° NNE 17:03:23 64° ESE 17:07:40 10° S
Cosmos 1633 Rocket 3.3 16:59:26 10° NNW 17:03:48 71° W 17:08:10 10° S
SJ-11-01 4.4 16:59:40 10° SSE 17:04:16 52° ENE 17:08:52 10° N
Cosmos 1666 3.5 17:01:51 10° NNW 17:05:29 52° W 17:09:05 10° S
PAYLOAD B 4.3 17:00:39 10° SSE 17:06:16 84° WSW 17:11:54 10° NNW
Landsat 5 3.6 17:05:03 29° NE 17:06:37 44° E 17:10:21 10° S
Cosmos 2360 Rocket 3.1 17:03:36 10° N 17:08:17 26° NE 17:08:17 26° NE
Genesis I 4.3 17:05:15 10° S 17:08:21 27° ESE 17:08:21 27° ESE
ISS -1.7 17:05:51 10° WNW 17:08:51 29° SW 17:11:49 10° SSE
Helios 1B 4.4 17:06:10 13° NNE 17:09:59 73° ESE 17:14:19 10° S
Cosmos 1818 3.6 17:08:41 10° NNW 17:14:11 86° WSW 17:19:37 10° SSE
CZ-2C R/B 2.4 17:13:44 10° WSW 17:17:43 37° S 17:19:13 27° SE
Meteor 2-15 4.4 17:11:53 10° S 17:18:00 84° W 17:24:07 10° N
ATLAS 5 CENTAUR R/B 2.8 17:15:45 10° NNW 17:19:39 29° NNE 17:19:39 29° NNE
SL-08 RB Rocket 3.7 17:18:26 10° SSE 17:22:57 54° ENE 17:27:26 10° N
Cosmos 2266 Rocket 3.9 17:16:42 10° N 17:23:07 79° E 17:29:32 10° S
USA 307 3.9 17:20:11 10° NW 17:23:33 30° NNE 17:23:33 30° NNE
CZ-4C R/B 3.6 17:18:03 10° NW 17:25:29 60° WSW 17:33:54 10° SSE
Lacrosse 5 rocket 1.3 17:23:19 10° NW 17:27:18 80° SW 17:28:57 36° SE
USA 234 3.1 17:22:36 16° SE 17:28:04 80° NE 17:34:37 10° NW
ATLAS 2AS CENTAUR R/B 4.5 17:26:59 10° NNW 17:30:48 14° NNE 17:31:18 14° NNE
Tiangong 2.5 17:27:54 10° SW 17:30:10 31° S 17:30:10 31° S
Cosmos 1933 Rocket 3.3 17:26:36 10° N 17:30:57 80° E 17:35:16 10° S
Cosmos 2322 Rocket 2.1 17:25:36 10° NNW 17:31:16 61° ENE 17:35:03 21° SE
Cosmos 2150 Rocket 4.1 17:27:43 10° NNW 17:32:55 79° WSW 17:38:10 10° SSE
Cosmos 1980 Rocket 4.5 17:29:31 10° NW 17:34:00 25° WSW 17:38:27 10° SSW
Cosmos 1867 3.5 17:30:50 10° SSW 17:36:17 85° WNW 17:38:27 38° NNE
NOSS 3-3 (A) 3.7 17:30:56 10° SSW 17:36:26 70° ESE 17:38:22 44° NE
NOSS 3-3 (C) 3.7 17:31:01 10° SSW 17:36:32 69° ESE 17:38:27 44° NE
H-2A R/B 3.1 17:31:41 10° S 17:36:36 45° W 17:41:24 10° NNW
Cosmos 1470 Rocket 4.3 17:32:35 10° NNW 17:36:57 53° W 17:41:18 10° S
Cosmos 1544 3.6 17:33:27 10° NNW 17:37:01 58° W 17:40:35 10° S
Okean O Rocket 1.8 17:33:56 10° S 17:38:21 72° WSW 17:42:50 10° NNW
DEBRIS 2.7 17:36:06 10° SW 17:38:35 79° SSE 17:38:35 79° SSE
X-37B 2.2 17:36:04 10° W 17:37:49 31° WNW 17:37:49 31° WNW
Cosmos 1125 Rocket 3.6 17:33:54 10° NNW 17:39:10 75° WSW 17:44:25 10° SSE
USA 32 4.0 17:36:30 10° S 17:41:44 86° W 17:46:22 14° N
Meteor 1-11 Rocket 3.8 17:38:37 10° NNW 17:44:18 78° W 17:50:04 10° S
USA 308 4.1 17:42:45 10° NW 17:45:21 31° NNW 17:45:21 31° NNW
ARGOS 3.6 17:43:01 10° S 17:48:22 62° WSW 17:53:44 10° NNW
SL-16 R/B 2.4 17:46:09 10° NNW 17:51:48 69° WSW 17:57:25 10° SSE
Feng Yun 1-1 Rocket 4.4 17:57:15 10° S 18:03:10 76° WSW 18:09:02 10° NNW
Cosmos 2333 Rocket 4.0 18:06:24 10° N 18:08:05 19° N 18:08:05 19° N
CZ-2C R/B 4.3 18:07:58 10° N 18:12:21 29° WNW 18:16:44 10° SW
Cosmos 2219 Rocket 4.4 18:14:23 10° N 18:15:05 13° N 18:15:05 13° N
Cosmos 2360 Rocket 3.7 18:47:06 10° NW 18:50:08 30° NW 18:50:08 30° NW
